Wind_Speed
37 36 34 33 33 32 32 31 30 30 31 31 31 31 31 32 31 31 30 29 29 29 29 30 30 30 30 30 30 30 29 29 28 27 27 28 29 30 29 28 28 28 28 29 29 29 29 29 28 27 26 26 26 26 25 25 24 24 23 23 23 23 23 23 22 21 19 18 18 17 18 18 18 18 18 18 18 18 18 18 18 18 18 18 17 16
37 36 35 34 33 33 32 31 31 30 30 30 30 30 31 31 31 31 30 30 30 30 30 30 30 30 31 31 31 30 30 29 28 27 27 29 30 30 29 29 29 29 29 30 30 31 30 29 28 26 26 26 26 26 25 25 25 24 24 23 23 23 23 22 22 21 20 18 18 18 18 18 18 18 18 18 18 18 18 18 19 19 19 18 18 17
36 36 35 34 33 33 33 32 31 30 29 29 29 29 30 30 31 31 30 30 30 30 30 30 31 31 31 31 31 31 31 30 28 28 28 30 31 31 31 30 30 29 30 31 31 31 30 28 26 25 25 25 26 26 26 25 25 24 24 24 23 23 22 22 21 20 20 19 18 18 18 18 18 18 17 17 17 18 18 18 19 19 19 19 18 17
35 35 35 34 33 33 32 31 30 30 29 29 29 29 29 30 30 30 30 30 30 30 31 31 31 32 32 32 32 32 31 31 30 30 30 31 32 32 32 31 30 30 30 31 31 30 28 26 25 24 24 25 25 25 25 25 25 25 24 24 23 23 22 21 21 20 20 19 19 18 18 18 18 17 17 17 18 18 18 19 19 19 19 18 18 17
34 34 34 33 33 32 31 31 30 29 29 29 29 29 29 29 30 30 30 30 30 31 31 31 32 32 33 33 32 32 32 32 32 32 32 32 33 33 33 31 30 30 30 31 30 29 27 25 24 24 24 24 25 25 25 25 25 25 24 24 23 22 22 21 21 20 20 19 19 18 18 18 18 18 18 18 18 18 19 19 19 19 19 18 18 17
34 33 33 32 32 31 30 30 29 29 29 28 28 28 28 29 29 29 29 30 30 31 31 32 32 33 33 33 33 33 33 33 33 33 33 33 33 32 31 30 30 30 30 30 30 28 26 25 24 23 24 24 24 25 25 25 25 25 24 23 23 22 21 21 20 20 20 19 19 18 18 18 18 18 18 18 19 19 19 19 19 19 19 18 18 17
34 33 32 31 30 30 30 29 29 28 28 28 28 28 28 28 28 29 29 29 30 31 31 32 33 33 33 33 34 34 34 34 33 33 32 32 31 30 29 29 29 29 30 31 30 28 26 25 24 23 24 24 24 25 25 25 25 25 24 23 22 22 21 20 20 20 19 19 19 18 18 18 18 18 18 19 19 19 19 19 19 19 19 18 18 17
33 32 30 30 29 29 29 29 28 28 28 28 28 28 28 28 28 29 29 29 30 31 31 32 32 33 33 34 34 34 34 34 33 32 31 30 29 28 27 27 28 30 31 31 30 28 26 25 24 24 24 24 24 25 25 25 25 24 24 23 22 21 21 20 20 20 19 19 19 18 18 18 18 18 19 19 19 19 19 19 19 19 18 18 18 18
31 31 29 29 28 28 28 29 28 28 28 29 29 29 28 28 28 28 29 29 30 30 31 31 32 32 33 33 33 33 33 33 32 31 30 28 27 26 26 28 29 31 32 32 30 28 26 25 24 24 23 24 24 25 25 25 25 24 23 22 22 21 21 20 20 20 19 19 19 19 18 18 18 19 19 19 19 19 19 19 19 19 19 18 18 18
30 30 29 28 28 28 28 28 28 28 28 28 29 29 28 28 28 28 28 29 29 30 30 30 31 31 32 32 32 32 32 31 30 29 28 27 27 27 28 29 31 32 32 31 29 28 26 25 24 23 23 24 24 24 25 25 24 23 23 22 21 21 20 20 20 20 19 19 19 19 19 19 19 19 19 19 19 19 19 19 19 19 19 18 18 18
29 28 28 28 28 27 27 28 28 28 28 28 28 28 28 28 28 28 28 28 28 28 29 29 30 30 30 30 30 30 30 29 28 27 27 28 29 30 30 31 32 31 31 30 28 27 26 24 23 23 23 24 24 24 25 24 24 23 22 21 21 21 20 20 20 20 19 19 19 19 19 19 19 19 19 19 19 19 19 19 19 19 19 19 18 18
28 28 28 28 27 27 27 27 27 28 28 28 28 28 28 28 28 28 27 27 27 27 27 27 28 28 28 29 29 29 28 27 27 28 29 31 31 32 31 31 30 30 29 28 27 26 25 24 23 23 23 24 24 24 24 24 23 22 22 21 21 20 20 20 20 20 19 19 19 19 19 19 19 19 19 19 19 19 19 19 19 19 19 19 18 18
27 27 27 27 27 27 27 27 27 27 28 28 28 28 28 28 27 27 27 27 26 26 26 26 26 27 27 27 28 27 27 27 28 29 30 31 31 30 30 29 29 29 28 28 27 25 24 23 23 23 23 24 24 24 24 23 23 22 21 21 20 20 20 20 20 20 20 20 19 19 19 20 20 20 19 19 19 19 19 19 19 19 19 19 19 18
27 27 27 27 27 27 27 27 27 28 28 28 29 29 29 28 28 27 27 27 26 26 25 26 26 27 27 27 27 27 26 27 28 29 30 29 29 29 29 29 29 29 29 27 25 24 23 23 23 23 24 24 24 23 23 23 22 21 21 21 20 20 20 20 20 20 20 20 20 20 20 20 20 20 20 20 19 19 19 19 19 19 19 19 19 19
27 27 27 27 27 27 27 27 28 28 29 29 29 30 30 29 29 28 27 26 26 26 26 27 28 28 28 28 28 28 27 28 29 30 30 30 30 30 31 31 31 30 29 27 25 24 23 23 24 24 23 23 23 23 23 22 21 21 20 20 20 20 20 20 20 20 20 20 20 20 20 20 20 20 20 20 19 19 19 19 19 19 19 19 19 19
27 27 28 28 28 28 28 28 28 29 29 30 30 30 30 29 28 27 26 26 26 27 28 29 29 30 30 30 29 28 29 29 30 31 32 32 33 33 33 33 32 31 29 27 25 24 24 24 24 24 23 23 23 22 22 21 21 20 20 20 20 20 20 20 20 20 20 20 20 20 20 20 20 20 20 20 19 19 19 19 19 19 19 19 19 19
28 28 28 28 29 29 29 29 29 30 30 30 30 30 30 29 29 29 28 28 29 29 30 31 32 32 32 31 29 28 28 29 30 32 33 33 34 34 34 33 31 30 29 27 26 24 24 24 23 23 23 22 22 22 21 21 20 20 20 20 20 20 20 20 20 20 20 20 20 20 20 20 20 20 20 20 20 20 20 20 20 19 19 19 19 19
29 29 29 29 29 29 29 29 30 30 31 31 31 31 31 31 31 31 31 31 32 33 33 34 34 34 32 29 27 26 26 27 29 30 32 32 32 33 33 32 30 29 28 26 25 24 24 23 23 22 22 21 21 21 20 20 20 20 20 20 20 20 20 20 20 20 20 20 20 20 20 20 20 20 20 19 20 20 20 20 20 20 20 20 20 20
29 29 29 29 30 30 30 30 30 31 31 31 31 31 31 32 32 31 32 32 33 34 35 35 34 32 29 27 25 25 25 27 29 30 30 31 30 30 30 30 29 27 26 25 24 23 23 23 22 22 21 21 20 20 20 20 20 20 20 20 20 20 20 20 20 20 20 20 20 19 19 19 19 19 19 20 20 20 20 20 20 20 20 20 20 20
29 29 29 29 30 31 31 31 31 31 31 32 32 32 32 32 32 32 32 32 32 33 33 32 30 29 27 25 25 25 26 28 29 30 30 29 29 28 28 28 27 26 25 24 23 23 22 22 21 21 20 20 20 19 19 19 19 19 20 20 20 20 20 20 19 19 19 19 19 19 19 19 19 19 19 20 20 20 20 20 20 20 20 20 20 20
29 29 29 30 30 31 31 31 31 31 32 32 32 32 32 32 31 31 31 30 30 29 29 27 27 26 26 26 26 26 28 29 30 30 29 28 27 26 26 26 26 25 24 23 22 22 22 21 20 20 19 19 19 19 19 19 19 19 19 19 19 19 19 19 18 18 18 18 18 18 18 19 19 19 20 20 20 20 20 20 20 20 20 20 20 20
29 29 29 30 30 31 31 31 31 31 31 32 32 32 31 31 31 30 29 28 27 26 26 25 26 26 27 27 27 28 30 30 30 30 29 27 25 25 25 25 25 24 23 22 21 21 21 20 19 19 19 19 19 19 19 19 19 19 19 19 19 18 18 18 17 17 17 18 18 18 19 19 19 20 20 20 20 20 20 20 20 20 20 20 21 21
29 29 29 30 30 31 31 31 31 31 31 31 31 32 32 31 31 30 29 27 26 26 25 26 27 28 28 28 29 30 31 31 30 29 27 26 24 24 24 25 24 23 22 21 21 21 20 19 19 18 18 18 18 18 18 18 18 18 18 18 17 17 17 17 17 17 18 18 18 19 19 19 20 20 20 20 20 20 20 20 20 20 20 20 21 21
29 30 30 30 30 31 31 31 31 31 31 31 31 31 31 31 31 30 29 28 28 27 27 28 29 30 30 30 31 31 31 31 29 28 26 25 24 23 23 24 23 22 21 20 20 20 19 19 18 18 18 18 18 18 18 18 17 17 17 17 16 16 16 16 17 18 18 19 19 19 19 19 19 19 20 20 20 20 20 20 20 20 20 20 21 21
30 30 30 31 31 31 31 32 32 32 32 32 32 32 32 31 31 31 30 30 29 29 29 30 31 31 32 32 32 31 30 29 28 26 25 24 23 22 23 23 22 21 20 19 20 19 19 18 18 18 18 17 17 17 17 17 16 16 16 16 15 16 16 17 17 18 18 19 19 19 19 19 19 19 19 19 19 19 19 19 20 20 20 20 20 21
30 31 31 31 31 32 32 32 32 32 32 32 32 32 32 32 31 31 31 30 30 30 31 31 32 32 32 32 31 30 29 28 27 26 25 24 22 22 22 22 21 20 19 19 19 19 18 18 18 17 17 17 16 16 16 16 16 15 15 15 15 16 16 17 18 18 18 18 18 18 18 18 18 18 18 18 18 18 19 19 19 20 20 20 20 20
31 31 31 32 32 32 32 33 33 33 32 32 32 32 32 32 31 31 31 31 31 31 31 32 32 32 31 30 29 28 28 27 26 25 24 23 21 21 21 21 20 19 19 19 19 18 18 17 17 17 16 16 16 16 15 15 15 15 15 15 16 16 17 17 17 18 18 18 18 17 17 17 17 17 17 18 18 18 19 19 19 20 20 20 20 20
31 31 32 32 32 33 33 33 33 33 33 33 33 32 32 32 31 31 31 31 31 31 31 31 31 30 29 28 27 27 27 27 26 25 23 22 21 20 20 20 20 19 19 19 19 18 18 17 17 17 16 16 16 15 15 15 15 15 15 16 16 17 17 17 17 17 17 17 17 17 17 17 17 17 17 18 18 19 19 19 20 20 20 20 20 20
31 32 32 33 33 33 33 33 33 34 33 33 33 32 32 31 31 30 30 30 30 29 29 29 29 28 27 27 27 27 27 26 25 23 22 21 20 20 20 20 19 19 19 19 18 18 17 17 17 17 16 16 16 15 15 16 16 16 16 17 17 17 17 17 17 17 17 17 16 17 17 17 17 18 18 18 19 19 19 20 20 20 20 20 20 20
32 32 33 33 33 34 34 34 34 34 34 33 33 32 32 31 30 30 29 29 28 28 27 27 27 27 26 27 27 26 25 24 23 22 21 20 20 20 20 20 19 19 19 18 18 18 17 17 17 17 16 16 16 16 16 16 17 17 17 17 17 17 17 17 17 17 17 17 17 17 18 18 18 19 19 19 20 20 20 20 20 20 20 20 20 20
32 33 33 33 34 34 34 34 34 34 34 33 33 32 31 31 30 29 28 27 26 26 26 26 27 27 26 26 26 25 24 23 22 22 21 20 20 20 20 19 19 19 19 18 18 17 17 17 17 17 17 16 16 16 17 17 17 17 17 17 17 17 17 17 17 17 17 17 18 18 18 19 19 19 20 20 20 20 20 20 20 20 20 20 20 20
33 33 33 34 34 34 35 35 34 34 34 33 33 32 31 30 29 28 27 26 26 26 26 27 27 27 26 25 24 23 22 22 22 22 21 20 20 20 19 19 19 19 19 18 18 17 17 17 17 18 17 17 17 17 17 17 18 18 17 17 17 17 17 17 18 18 18 18 19 19 19 19 20 20 20 20 20 20 20 20 20 20 20 20 20 20
33 33 34 34 34 35 35 35 35 34 34 33 32 31 30 29 28 27 26 26 26 26 27 28 27 26 25 24 23 22 22 22 22 22 21 20 19 19 19 19 19 19 18 18 18 18 18 18 18 18 18 17 17 17 18 18 18 18 17 17 17 18 18 18 18 19 19 19 19 19 20 20 20 20 20 20 20 20 20 20 20 20 20 20 20 20
34 34 34 34 35 35 35 35 35 34 34 33 32 31 29 28 27 26 26 26 26 27 28 27 26 25 24 23 22 22 22 23 22 21 20 19 19 19 19 19 19 19 18 18 18 18 18 18 18 18 18 18 18 18 18 18 18 18 18 18 18 18 19 19 19 19 20 20 20 20 20 20 20 20 20 20 20 20 20 20 20 20 20 20 21 21
34 34 34 34 35 35 35 35 35 34 33 32 31 30 28 27 27 26 26 27 27 28 27 26 25 24 23 22 22 22 22 22 22 20 20 19 19 20 20 19 19 19 19 18 18 18 18 19 19 19 19 19 19 19 19 18 18 18 18 19 19 19 19 20 20 20 20 20 19 19 19 19 19 19 20 20 20 20 20 20 20 21 21 21 21 22
34 34 35 35 35 35 35 35 35 34 33 31 30 29 28 27 26 26 27 28 28 27 26 25 24 23 23 23 22 22 23 22 21 20 20 20 20 20 20 20 19 19 19 19 19 19 19 19 19 19 19 19 19 19 19 19 19 19 19 19 19 20 20 20 20 19 19 19 19 19 19 19 19 19 19 19 19 20 20 20 21 21 22 22 22 23
35 35 35 35 35 35 35 35 34 33 32 30 29 28 27 27 27 27 28 28 27 26 24 23 23 23 23 23 23 23 23 22 22 21 21 21 21 21 20 20 20 20 20 20 20 20 20 20 20 20 19 19 19 19 19 19 19 19 20 20 20 20 20 20 19 19 18 18 18 18 18 18 19 19 19 19 20 20 20 21 21 22 22 23 23 24
35 35 35 35 35 35 35 34 33 32 30 29 28 27 27 27 28 28 28 27 25 24 23 23 23 23 23 23 23 23 23 22 22 22 22 22 21 21 21 20 21 21 21 21 21 21 21 20 20 20 20 19 20 20 20 20 20 20 20 20 20 20 19 19 18 18 17 17 18 18 18 18 19 19 19 19 20 20 21 21 22 22 23 23 24 24
35 35 35 35 35 35 34 33 31 30 28 27 27 27 27 28 29 28 27 25 24 23 23 24 24 24 24 24 24 23 23 23 23 23 23 23 22 21 21 21 21 21 21 21 21 21 21 21 20 20 20 20 20 20 21 21 21 21 21 20 20 19 18 18 17 17 17 17 17 18 18 18 19 19 19 20 20 20 20 21 22 22 23 23 24 25
34 34 34 34 34 33 32 30 29 27 26 26 27 28 29 29 28 27 25 24 23 23 24 24 24 24 24 24 24 24 24 24 24 24 24 23 23 22 22 22 22 22 22 22 21 21 21 21 21 21 21 21 21 21 21 21 21 21 21 20 19 18 17 17 16 16 17 17 17 18 18 19 19 19 20 20 20 20 21 21 22 23 23 24 25 25
34 34 34 33 32 31 30 28 27 26 26 27 28 29 29 28 27 25 24 24 24 24 24 24 24 24 24 25 25 25 25 25 25 25 24 24 23 23 22 22 22 22 22 22 21 21 21 21 21 21 22 22 22 22 22 22 21 21 20 18 17 17 16 16 16 17 17 17 18 18 18 19 19 20 20 20 20 21 21 22 23 23 24 25 26 26
33 33 33 32 31 29 28 26 26 26 27 28 29 29 28 27 25 24 24 24 24 25 25 25 25 25 25 25 26 26 26 26 25 25 24 24 23 23 23 23 23 22 22 22 22 22 22 22 22 22 22 22 22 22 22 22 21 20 18 17 17 16 16 16 17 17 17 18 18 18 18 19 19 20 20 21 21 22 22 23 23 24 25 26 27 27
32 32 31 30 29 27 26 26 26 27 29 29 29 28 26 25 25 25 25 25 25 25 25 25 25 26 26 26 26 26 26 26 25 25 24 24 23 23 23 23 23 23 22 22 22 22 23 23 23 23 23 22 22 22 21 21 20 19 17 17 17 16 16 17 17 17 17 18 18 18 18 19 19 20 20 21 22 22 23 24 24 25 26 26 27 27
31 31 30 28 27 26 26 27 28 29 29 28 27 26 26 25 25 25 25 25 25 26 26 26 26 26 26 26 26 26 25 25 25 24 24 24 23 23 23 23 23 23 23 23 23 23 23 23 23 23 22 22 22 22 21 20 19 18 17 17 17 17 17 17 17 17 17 17 17 18 18 19 19 20 21 22 22 23 24 24 25 25 26 26 27 27
30 29 28 27 26 27 27 28 29 29 28 27 26 26 26 26 26 26 26 26 26 26 27 27 27 27 26 26 26 26 25 24 24 24 24 23 23 23 23 23 23 23 24 24 23 23 23 23 22 22 22 22 22 21 20 19 18 18 17 17 18 18 18 18 17 17 17 17 17 18 18 19 20 21 21 22 23 24 24 25 25 26 26 26 26 26
28 27 26 26 27 28 29 29 28 28 27 26 26 26 26 26 26 26 26 27 27 27 27 27 27 26 26 26 26 25 25 24 24 23 23 23 23 23 23 24 24 24 24 24 24 24 23 23 22 22 22 22 21 21 20 19 18 18 18 18 18 18 18 18 17 17 17 17 18 18 19 20 21 21 22 23 23 24 24 25 25 25 26 26 25 25
26 26 26 27 28 29 29 28 27 27 26 27 27 27 27 27 27 27 27 27 28 28 28 27 27 26 26 26 25 25 24 24 24 24 24 24 24 24 24 24 25 25 25 24 24 23 23 23 22 22 22 21 21 20 19 18 18 18 18 18 18 18 18 18 18 18 18 18 19 19 20 21 21 22 23 23 23 24 24 25 25 25 25 25 25 24
26 26 27 28 29 29 28 27 27 27 27 27 27 27 27 27 27 27 28 28 28 28 28 27 27 26 26 25 25 25 24 24 24 24 25 25 25 25 25 25 25 25 25 24 23 23 23 22 22 22 22 21 20 20 19 19 19 19 19 19 19 19 19 19 19 19 19 20 20 21 21 22 22 22 23 23 23 24 24 24 25 25 25 25 24 24
26 27 28 29 28 28 27 27 27 27 28 28 28 28 28 28 28 28 28 28 28 28 27 27 26 26 26 25 25 25 26 26 26 26 26 26 26 26 25 25 24 24 23 23 23 23 22 22 22 22 21 21 20 20 20 20 20 20 20 20 20 20 20 20 21 21 21 21 21 22 22 23 23 23 23 23 23 24 24 24 24 25 25 25 24 24
27 28 29 28 28 27 27 27 28 28 28 28 28 28 28 28 28 28 28 28 28 27 27 27 26 26 26 26 26 27 27 27 27 27 27 26 26 25 25 24 24 23 23 23 23 22 22 22 22 21 21 21 21 21 21 21 21 21 21 21 22 22 22 22 22 22 22 22 23 23 23 23 24 24 24 24 24 24 24 24 24 25 25 25 24 24
28 29 29 28 27 27 28 28 28 28 28 28 28 28 28 28 28 28 28 28 28 27 27 27 27 27 27 27 27 27 27 27 27 26 26 26 25 24 24 23 23 23 23 23 23 22 22 22 22 21 21 21 21 21 21 21 22 22 22 22 22 23 23 23 23 23 23 23 24 24 24 24 24 24 24 24 24 24 24 24 25 25 25 25 25 25
Wind_Direction
277 277 278 278 277 277 276 275 273 272 272 272 272 271 271 271 271 270 270 269 268 268 267 267 267 267 268 267 267 265 264 262 261 260 260 259 258 258 259 263 267 269 269 269 269 268 265 262 264 270 278 283 285 284 283 281 278 275 272 270 267 266 264 263 261 259 256 253 251 249 248 246 245 243 244 246 249 252 253 254 255 256 256 256 255 253
276 276 277 277 276 276 275 274 273 272 271 271 270 270 270 270 270 270 269 269 268 267 267 267 267 267 267 267 266 266 264 262 260 259 258 258 258 259 262 265 267 268 268 269 269 267 263 261 264 271 278 282 283 282 281 279 277 274 271 268 266 264 262 260 258 255 252 249 247 246 246 247 247 247 246 247 249 251 252 253 254 254 255 256 256 255
275 275 276 275 275 275 275 274 274 273 272 271 270 269 269 269 269 269 269 268 268 267 267 267 267 267 267 267 266 266 265 263 260 258 257 258 259 262 264 266 267 267 267 268 268 266 262 262 266 273 278 280 281 280 279 278 276 273 270 267 264 262 260 257 254 251 247 245 243 242 243 245 247 248 248 249 249 250 251 251 252 253 254 256 256 255
274 274 274 274 273 273 273 273 273 273 272 271 270 269 269 268 268 269 268 268 268 267 267 267 267 267 267 267 266 266 265 264 261 258 257 258 260 262 265 266 266 266 266 267 266 263 261 264 269 275 278 279 279 278 278 276 275 272 269 266 263 260 258 255 251 247 244 241 240 240 241 243 246 248 249 250 250 250 250 251 252 253 255 256 256 255
274 273 273 273 272 272 272 272 272 272 271 271 270 269 268 268 268 268 268 267 267 267 267 267 266 266 266 266 265 265 265 264 262 260 259 259 261 263 265 265 265 265 265 265 264 262 263 267 273 276 277 277 276 276 276 275 273 271 268 265 262 259 256 252 248 245 242 240 239 240 242 244 246 248 249 250 251 251 252 253 254 255 256 257 256 256
273 272 272 272 272 273 273 272 272 272 272 271 270 269 268 268 268 267 267 266 266 266 266 266 266 266 266 265 264 264 264 263 263 262 262 262 263 263 264 263 263 263 264 263 262 262 266 271 275 277 275 274 274 274 274 273 271 269 267 264 261 257 254 250 247 244 242 241 241 242 244 246 247 249 251 251 252 253 254 255 256 257 258 258 257 257
272 271 271 272 273 273 273 273 272 272 272 271 270 269 268 268 268 267 267 266 265 265 265 265 265 265 264 264 263 263 263 263 263 264 264 264 264 263 263 262 262 262 262 262 262 265 270 274 277 276 273 272 272 273 272 271 269 267 265 262 259 256 252 249 246 243 242 242 243 244 246 247 249 250 252 253 254 255 256 257 257 258 258 258 258 257
272 271 271 271 272 273 274 273 273 272 272 272 271 270 269 268 268 267 267 266 265 265 264 264 264 264 263 263 262 262 262 263 263 263 263 263 263 262 262 262 262 262 262 262 263 267 272 276 276 274 271 271 271 271 270 269 267 265 263 260 257 254 250 248 245 244 243 244 244 246 247 248 250 251 252 253 254 255 256 257 257 258 258 258 258 257
272 271 271 271 272 273 274 274 273 272 272 272 271 271 270 269 269 268 267 266 265 264 264 263 262 262 262 262 262 262 262 262 262 262 262 262 262 263 263 263 263 262 261 262 265 269 274 276 275 272 269 269 270 269 268 267 265 263 260 258 255 252 249 247 246 245 245 245 246 247 248 250 251 252 253 254 255 256 256 257 257 257 257 257 257 257
272 272 271 271 271 272 273 274 273 273 272 271 271 271 271 271 270 269 267 266 265 264 264 263 262 262 262 261 261 261 261 262 262 263 263 263 264 264 263 263 261 261 261 263 267 272 275 275 272 269 268 268 268 267 266 264 263 260 258 255 253 251 249 247 246 246 247 247 248 249 250 251 252 253 253 254 255 256 256 256 256 256 256 256 256 256
272 272 272 272 272 272 272 273 274 273 272 272 272 272 272 272 271 270 268 266 265 264 264 263 263 262 262 261 260 260 261 262 264 264 264 263 262 261 259 259 258 259 261 265 270 274 275 273 270 267 267 267 266 265 264 262 260 258 256 253 251 249 248 247 247 247 248 249 250 250 251 252 253 253 254 254 255 255 256 256 256 255 256 255 256 256
273 273 273 273 273 273 273 273 274 274 273 273 273 273 273 272 271 270 267 265 263 262 262 262 263 263 262 262 261 261 262 263 264 264 262 259 256 254 254 254 256 259 264 270 274 276 274 271 268 266 266 266 264 263 261 259 258 256 253 251 250 248 247 247 247 248 249 249 250 251 252 253 253 254 254 255 255 255 255 255 255 255 255 255 255 255
274 274 274 274 274 274 274 274 274 275 275 275 274 274 273 271 270 268 266 265 263 262 262 262 263 263 264 264 263 263 262 263 262 261 258 254 252 251 252 256 260 266 272 276 278 277 273 269 267 266 265 264 262 260 258 257 255 253 251 250 248 248 247 247 248 248 249 250 250 251 252 253 253 254 254 254 254 254 254 254 254 254 254 254 254 254
274 274 274 274 274 274 274 275 275 276 276 275 274 274 273 272 270 269 268 267 266 265 264 264 264 265 267 267 266 263 261 260 259 258 257 255 255 256 259 264 269 274 278 280 279 276 271 268 266 265 264 262 259 257 256 254 252 250 249 248 248 247 247 248 248 248 249 250 250 251 252 253 253 254 254 254 254 254 254 254 254 254 254 254 254 254
274 274 274 274 274 274 274 275 275 276 276 275 275 274 274 273 273 271 270 268 266 265 264 264 265 267 269 269 268 264 260 257 257 258 259 260 262 265 268 272 275 278 280 279 277 274 270 267 265 263 261 259 257 255 253 251 249 248 247 247 247 247 247 247 248 248 249 249 250 251 252 252 253 253 254 254 254 254 254 254 254 254 254 254 254 254
273 273 273 273 273 274 274 275 275 275 275 275 275 275 274 273 272 269 266 262 260 259 259 261 263 266 269 270 269 266 261 258 257 258 261 263 266 268 271 274 276 277 277 276 274 271 267 265 263 261 258 256 254 252 250 249 248 247 246 246 246 247 247 247 248 248 249 249 250 251 251 252 253 253 253 253 253 254 254 254 254 254 254 253 254 254
272 272 273 273 274 274 274 274 275 275 275 276 275 275 273 271 269 265 261 257 255 255 257 260 263 266 269 271 270 267 264 262 260 260 261 264 265 267 270 272 273 273 273 272 270 267 264 262 260 257 255 253 251 249 248 247 246 246 246 246 246 247 247 247 248 248 249 249 250 250 251 252 252 252 253 253 253 253 254 254 254 254 254 253 254 254
271 272 272 273 274 274 274 275 275 275 275 275 275 274 272 270 268 265 261 257 254 254 257 260 263 266 269 270 270 268 266 265 264 264 263 264 265 266 268 269 270 270 269 268 266 263 260 258 256 253 251 249 248 247 247 246 246 246 246 247 247 247 248 248 248 249 249 249 250 250 251 251 252 252 253 253 253 253 253 253 254 253 253 253 254 254
271 271 272 273 274 274 274 274 274 274 274 274 273 272 270 269 267 265 262 259 257 256 257 259 262 264 266 267 268 268 268 268 267 266 266 265 265 266 267 267 267 267 265 264 262 259 257 254 252 250 248 246 246 245 245 246 246 247 247 248 248 248 249 249 249 249 250 250 250 250 251 251 252 252 253 253 253 253 253 253 253 253 253 254 254 254
271 271 272 272 273 273 273 273 273 273 273 272 271 270 268 268 267 265 264 262 260 259 259 259 260 262 263 265 266 267 269 269 268 268 267 265 265 265 265 265 264 263 262 260 258 256 253 250 248 246 245 244 244 244 245 246 247 247 248 249 249 250 250 250 250 250 251 251 251 251 252 252 252 253 253 253 253 253 253 253 253 253 253 253 254 254
271 271 272 272 272 273 273 273 272 272 271 270 270 269 268 267 266 266 265 263 262 261 261 260 260 261 262 263 263 265 267 268 269 268 267 265 264 263 262 262 261 260 258 256 254 251 249 247 244 243 243 242 243 244 245 246 247 248 249 249 250 250 251 251 251 252 253 253 253 254 254 254 254 253 253 253 253 253 253 253 253 253 253 253 254 254
271 272 272 272 273 273 273 273 273 272 271 270 270 269 268 267 266 266 265 264 263 262 261 260 259 260 260 260 261 263 266 268 269 268 266 264 262 260 260 259 258 257 254 252 250 247 245 243 242 241 241 242 243 244 245 246 247 248 248 249 250 250 251 252 253 255 256 256 256 256 256 255 254 254 253 253 253 253 253 253 253 253 253 254 254 255
272 272 273 273 273 274 274 274 273 272 272 271 270 269 268 267 266 265 264 263 261 259 258 257 258 258 258 259 260 263 265 267 267 266 264 261 259 258 257 256 255 253 250 248 246 244 242 241 241 241 241 242 243 244 244 245 246 247 247 248 249 250 252 254 255 256 257 257 257 257 256 256 255 254 254 253 253 253 253 253 253 253 254 254 255 255
272 273 273 273 274 274 274 273 273 272 272 271 270 269 269 267 266 265 263 261 259 257 256 255 255 256 257 258 261 263 265 265 265 263 261 259 256 254 254 253 251 249 246 243 242 241 240 240 240 240 241 242 242 243 243 244 244 245 246 247 248 250 252 254 255 256 256 256 256 256 256 255 254 254 254 253 253 253 253 253 254 254 255 255 255 256
273 274 274 274 274 274 274 273 273 273 272 271 270 270 269 268 266 265 263 261 259 256 254 253 253 255 256 258 261 262 263 263 261 260 257 256 253 251 249 249 247 245 242 240 239 239 239 239 239 240 240 240 241 241 242 242 243 244 245 246 248 250 251 253 254 254 255 255 255 254 254 254 254 253 253 253 253 254 254 254 255 255 256 256 256 257
273 274 275 275 275 275 274 274 274 273 272 271 270 269 268 267 266 264 263 261 259 256 254 254 254 255 256 258 259 260 261 260 258 256 254 252 249 246 245 244 242 240 239 238 238 238 238 238 238 239 239 239 239 240 240 241 242 244 245 247 249 250 251 252 252 253 253 253 253 253 253 253 253 253 253 254 254 255 255 255 256 256 256 257 257 257
273 274 275 276 276 275 275 275 274 273 273 272 271 269 268 267 265 264 263 261 259 257 255 254 254 254 255 256 257 257 257 256 254 252 250 247 244 241 240 239 238 237 236 236 237 237 236 236 236 237 237 237 238 239 240 242 244 246 247 249 250 251 251 251 251 251 251 251 252 252 252 253 253 254 254 255 255 256 256 256 257 257 257 257 257 257
273 275 275 276 276 276 275 275 274 274 273 272 271 269 268 266 265 264 263 262 260 257 255 254 253 253 253 253 253 253 252 252 250 248 246 242 239 236 235 235 235 234 234 235 235 235 234 233 233 234 234 236 237 239 242 244 246 248 249 250 251 251 250 250 250 250 250 250 251 252 253 254 254 255 255 256 256 257 257 257 257 257 257 257 257 257
273 275 275 276 276 276 275 275 274 273 272 271 270 269 268 266 264 263 262 260 258 255 253 252 252 251 250 250 249 249 249 248 246 244 241 237 234 232 232 233 233 233 233 233 233 233 232 231 231 232 233 235 238 240 243 246 248 249 250 250 250 249 249 249 248 249 250 251 252 253 254 255 256 256 257 257 257 257 257 257 257 257 257 257 257 257
274 275 276 276 276 276 275 275 274 273 272 271 270 268 267 266 264 262 260 257 255 252 251 250 249 248 247 247 246 246 245 244 242 239 236 232 230 230 230 231 231 231 231 231 231 231 231 231 232 232 234 236 239 241 244 247 248 249 249 249 248 248 247 248 248 249 251 252 253 255 256 256 257 257 258 258 258 258 258 258 257 257 257 257 257 257
274 276 276 277 277 276 275 274 273 272 271 270 269 267 266 264 262 260 257 254 251 248 248 247 247 246 245 244 243 242 241 239 237 234 231 228 227 227 228 229 229 230 230 229 229 229 231 233 234 235 236 238 240 242 244 246 247 247 247 247 247 247 247 248 250 251 252 254 255 256 257 257 258 258 258 258 258 258 258 258 257 257 257 257 257 258
274 275 276 276 276 276 275 274 272 271 270 268 267 266 264 262 259 256 253 250 247 245 244 244 244 243 242 241 239 237 235 234 232 229 227 225 224 225 226 227 227 228 228 228 228 229 231 233 236 238 239 240 242 243 244 245 245 245 246 246 247 248 249 250 251 253 254 255 256 257 257 258 258 258 258 258 258 258 258 258 257 257 257 258 258 258
273 275 275 276 275 275 274 273 271 269 268 266 265 263 261 258 255 252 248 245 243 242 242 242 241 240 238 237 234 231 229 228 227 226 224 222 222 223 224 225 225 226 227 228 229 230 232 234 237 240 242 243 243 244 245 245 245 246 246 247 248 250 251 252 253 254 255 256 257 257 258 258 258 259 259 259 259 258 258 258 258 258 258 258 259 259
273 274 275 275 275 274 273 271 269 268 266 264 262 260 257 254 250 247 244 242 241 241 240 239 238 236 234 231 229 226 224 225 224 223 221 220 220 221 223 224 225 226 228 229 231 233 235 237 239 241 243 244 245 245 245 246 247 248 249 250 251 252 254 255 255 256 256 257 257 257 258 258 259 259 259 259 259 259 259 259 259 259 260 260 261 261
272 274 274 274 274 273 271 270 268 265 263 261 258 256 252 249 246 243 241 240 239 239 238 236 234 231 228 226 223 221 221 222 222 221 219 219 219 220 222 223 225 227 229 232 234 236 238 240 241 243 244 245 246 246 247 248 250 251 252 253 254 255 256 256 257 257 257 257 257 258 258 258 259 259 260 260 260 260 260 260 261 261 261 262 263 263
272 273 274 274 273 272 270 268 266 263 260 257 254 251 247 244 242 240 239 239 238 236 234 231 228 226 223 221 219 218 218 219 219 219 218 219 219 220 222 224 227 229 231 234 236 238 239 241 242 243 244 244 246 248 249 251 252 253 254 255 256 257 257 257 257 257 257 257 258 258 258 259 259 260 260 261 261 262 262 262 262 263 263 264 264 265
272 273 274 273 272 271 269 266 263 260 256 252 249 246 243 240 239 238 238 237 235 232 228 224 222 220 219 217 216 215 216 217 218 218 219 220 221 222 223 226 229 232 233 235 237 238 239 241 242 243 244 245 247 249 250 253 254 255 256 256 257 257 257 257 257 257 257 257 258 259 259 260 260 261 261 262 262 263 263 264 264 264 265 265 266 266
272 273 273 273 271 269 267 264 260 256 251 246 243 240 238 237 236 236 235 233 229 225 221 219 218 217 216 215 214 214 215 216 217 219 220 221 222 224 225 228 231 233 234 235 237 238 239 240 242 244 245 247 249 250 252 254 255 256 256 257 257 256 256 256 255 256 257 258 259 260 261 262 262 262 263 263 263 264 264 265 265 266 266 266 267 267
272 273 273 272 270 268 264 260 255 250 245 241 238 236 235 234 234 233 230 226 222 218 217 216 216 216 215 214 214 215 216 217 218 219 221 222 224 226 228 230 232 234 235 236 237 238 239 241 243 245 247 249 251 253 254 255 256 256 256 256 255 254 254 254 255 256 257 259 260 262 263 263 264 264 264 264 264 265 265 265 266 266 267 268 268 269
272 272 272 270 268 264 260 255 250 245 240 236 234 233 232 231 230 228 223 219 215 214 214 215 215 214 214 214 215 216 217 218 219 220 222 224 226 228 230 231 232 234 235 236 237 238 240 242 244 246 249 251 252 254 255 256 256 255 255 253 252 252 252 254 255 257 259 260 262 263 264 265 265 266 266 266 266 266 266 266 267 268 268 269 270 270
271 271 270 268 264 260 255 250 244 239 234 232 231 230 229 228 224 220 216 213 212 212 213 214 214 214 214 215 216 217 217 218 220 221 223 225 227 229 231 232 233 234 235 236 238 239 241 244 246 249 251 252 254 255 255 256 255 254 252 250 250 250 252 254 256 258 260 262 263 264 265 266 267 267 268 268 268 268 268 269 269 270 271 271 271 271
269 269 267 264 260 254 249 244 238 233 230 229 228 227 225 221 217 213 211 211 211 212 213 213 214 214 215 215 216 218 218 219 221 223 225 227 229 230 232 233 234 235 236 237 239 242 244 247 249 251 252 254 254 255 255 254 252 250 249 248 249 250 253 256 258 260 261 263 264 265 266 267 268 269 270 270 271 271 272 272 273 273 273 273 273 273
267 266 264 260 255 249 243 238 233 230 228 227 225 222 219 214 211 209 208 209 211 212 213 214 214 215 215 216 217 218 219 221 222 224 226 228 230 231 233 234 235 236 237 239 242 244 247 249 251 252 254 254 255 255 253 251 249 247 246 247 249 251 254 256 259 260 262 263 264 266 267 268 269 270 271 272 273 274 275 276 276 277 276 276 275 274
265 263 259 254 249 243 238 233 230 228 226 223 219 215 212 209 207 207 208 209 211 213 214 214 215 215 215 216 217 218 220 222 224 225 227 229 231 232 233 235 236 238 240 242 244 247 250 252 253 254 254 255 255 254 251 249 246 245 246 248 250 252 254 256 258 260 262 263 265 266 268 269 270 271 273 274 276 277 278 279 279 280 279 278 277 275
262 259 254 248 242 237 233 230 228 225 221 217 212 209 207 206 206 207 209 210 212 213 214 215 215 215 215 216 217 218 220 223 225 227 229 230 232 234 235 236 238 240 242 245 247 250 251 253 254 254 254 254 254 252 249 247 245 246 248 250 252 254 255 256 258 260 262 264 266 268 269 270 271 273 274 276 277 279 280 281 282 282 282 281 279 277
257 253 247 242 237 233 231 228 224 219 214 209 206 205 205 205 206 208 210 211 213 214 214 215 215 215 215 216 218 220 221 223 226 228 230 232 234 236 238 239 240 242 244 247 249 251 252 253 254 254 254 254 252 250 248 246 246 248 250 252 254 255 256 258 260 262 264 266 269 270 272 273 274 275 276 277 279 280 282 283 284 284 284 283 281 278
251 246 241 237 234 231 227 223 218 212 207 204 204 204 205 206 207 209 211 212 213 213 214 214 214 215 216 218 219 221 223 225 227 230 232 234 237 238 240 242 243 244 246 248 249 251 251 252 253 253 253 252 250 248 247 247 249 251 253 254 256 257 259 261 263 265 267 270 272 273 274 275 276 277 278 279 280 282 283 284 285 285 285 284 282 279
245 241 237 234 231 227 221 216 211 207 204 204 204 205 206 207 209 210 212 212 213 213 213 214 214 216 217 219 221 223 225 227 230 232 234 237 239 241 242 244 245 246 247 248 249 250 251 251 252 251 251 249 248 247 247 249 251 253 255 257 258 260 262 264 266 269 271 273 275 276 277 278 278 279 280 281 282 284 285 286 286 287 286 285 283 280
239 236 233 230 225 220 214 209 206 205 204 205 205 206 208 209 210 211 212 212 212 213 213 214 215 217 219 221 223 225 227 230 232 234 237 238 240 242 244 245 246 247 247 247 248 249 250 250 250 249 248 247 246 247 249 251 254 256 258 260 262 264 265 267 269 272 274 276 277 278 279 280 281 281 282 283 284 285 286 287 287 287 287 285 283 280
235 232 228 223 218 212 208 206 205 205 205 206 207 208 209 210 210 211 211 212 212 213 214 215 217 219 221 224 226 229 231 233 235 237 238 240 242 243 244 245 246 246 246 247 248 248 249 250 249 248 247 246 247 249 251 254 257 259 262 263 265 266 268 270 272 273 275 277 279 280 281 282 282 283 283 283 284 285 286 287 288 287 286 285 283 280
231 227 222 216 210 207 205 205 205 206 206 207 208 209 210 210 211 211 211 212 212 213 215 217 219 222 225 227 230 232 234 236 237 238 240 241 242 243 244 245 245 246 246 248 249 250 250 250 249 248 247 248 250 252 255 258 260 263 264 266 267 268 270 271 273 275 276 278 280 281 282 282 283 283 283 283 283 284 285 287 287 287 286 285 283 280
Height
3065 3065 3065 3066 3066 3065 3065 3065 3065 3065 3065 3064 3064 3063 3063 3062 3062 3062 3062 3062 3062 3062 3062 3062 3062 3062 3062 3062 3062 3062 3063 3063 3063 3064 3064 3064 3064 3064 3064 3064 3064 3064 3065 3065 3065 3065 3066 3066 3066 3066 3066 3066 3065 3065 3065 3065 3065 3065 3065 3064 3064 3064 3064 3064 3064 3065 3065 3066 3066 3067 3067 3067 3067 3067 3068 3069 3069 3069 3070 3070 3071 3071 3071 3071 3072 3072
3062 3062 3062 3062 3062 3062 3062 3062 3062 3062 3062 3062 3061 3061 3060 3060 3059 3059 3059 3059 3059 3059 3059 3059 3059 3059 3059 3060 3060 3060 3060 3061 3061 3062 3062 3062 3062 3062 3062 3062 3062 3062 3063 3063 3063 3063 3063 3063 3063 3063 3064 3063 3063 3063 3063 3063 3063 3063 3063 3062 3062 3062 3062 3062 3063 3063 3064 3064 3065 3065 3066 3066 3066 3066 3066 3067 3067 3068 3068 3069 3069 3070 3070 3070 3070 3071
3059 3059 3059 3059 3060 3059 3059 3059 3059 3059 3059 3058 3058 3058 3057 3057 3057 3057 3057 3057 3057 3057 3057 3057 3057 3057 3057 3057 3057 3058 3058 3058 3059 3059 3060 3060 3060 3060 3060 3060 3061 3061 3061 3061 3061 3061 3061 3061 3061 3061 3061 3061 3061 3061 3061 3061 3061 3061 3061 3061 3061 3061 3061 3061 3062 3062 3062 3063 3063 3064 3064 3064 3065 3065 3065 3066 3066 3067 3067 3067 3068 3068 3068 3069 3069 3069
3056 3056 3056 3056 3057 3056 3056 3056 3056 3056 3056 3056 3055 3055 3055 3055 3054 3054 3054 3054 3054 3054 3054 3055 3055 3055 3055 3055 3055 3055 3056 3056 3057 3057 3057 3058 3058 3058 3058 3058 3059 3059 3059 3059 3059 3059 3059 3059 3059 3059 3059 3059 3059 3059 3059 3059 3059 3059 3059 3059 3059 3059 3059 3059 3060 3060 3061 3062 3062 3062 3063 3063 3063 3064 3064 3064 3065 3065 3066 3066 3067 3067 3067 3067 3067 3068
3053 3053 3053 3053 3053 3053 3053 3053 3053 3053 3052 3052 3052 3052 3052 3052 3052 3052 3052 3052 3052 3052 3052 3052 3052 3052 3052 3052 3053 3053 3053 3054 3054 3055 3055 3055 3056 3056 3056 3056 3057 3057 3057 3057 3057 3057 3057 3057 3057 3057 3057 3057 3057 3057 3057 3057 3057 3057 3057 3057 3057 3057 3057 3058 3058 3059 3059 3060 3060 3061 3061 3062 3062 3062 3062 3063 3063 3064 3064 3065 3065 3065 3065 3066 3066 3067
3050 3050 3050 3050 3050 3050 3050 3050 3050 3050 3050 3050 3050 3050 3050 3050 3050 3050 3050 3050 3050 3050 3050 3050 3050 3050 3050 3050 3051 3051 3051 3051 3052 3052 3052 3053 3053 3053 3054 3054 3054 3055 3055 3055 3055 3054 3054 3054 3054 3054 3054 3055 3055 3055 3055 3055 3055 3055 3055 3055 3055 3056 3056 3056 3057 3057 3058 3058 3059 3059 3059 3060 3060 3061 3061 3061 3062 3062 3062 3063 3063 3063 3064 3064 3064 3065
3047 3047 3047 3047 3047 3047 3047 3047 3047 3047 3047 3047 3047 3047 3047 3047 3047 3047 3047 3047 3047 3047 3047 3047 3047 3047 3048 3048 3048 3048 3048 3049 3049 3050 3050 3051 3051 3051 3052 3052 3052 3052 3052 3052 3052 3052 3052 3052 3052 3052 3052 3052 3052 3053 3053 3053 3053 3053 3053 3053 3053 3054 3054 3055 3055 3056 3056 3057 3057 3057 3058 3058 3059 3059 3059 3060 3060 3061 3061 3061 3062 3062 3062 3062 3063 3063
3044 3044 3045 3045 3044 3044 3044 3044 3044 3044 3044 3044 3044 3044 3045 3045 3045 3045 3045 3045 3045 3045 3045 3045 3045 3045 3046 3046 3046 3046 3046 3047 3047 3047 3048 3048 3048 3049 3049 3050 3050 3050 3050 3050 3050 3050 3050 3050 3050 3050 3050 3050 3051 3051 3051 3051 3051 3051 3052 3052 3052 3052 3053 3053 3053 3054 3055 3055 3056 3056 3056 3057 3057 3057 3058 3058 3058 3059 3059 3060 3060 3060 3061 3061 3062 3062
3042 3042 3042 3042 3042 3042 3042 3041 3042 3042 3042 3042 3042 3042 3042 3042 3042 3042 3042 3042 3042 3042 3043 3043 3043 3043 3043 3043 3043 3043 3044 3044 3045 3045 3046 3046 3046 3047 3047 3047 3048 3048 3048 3048 3048 3048 3047 3048 3048 3048 3048 3048 3048 3049 3049 3049 3049 3049 3050 3050 3050 3051 3051 3052 3052 3052 3053 3053 3054 3054 3055 3055 3056 3056 3056 3057 3057 3057 3058 3058 3058 3059 3059 3059 3060 3060
3039 3039 3039 3039 3039 3039 3039 3039 3039 3040 3040 3040 3039 3039 3039 3039 3040 3040 3040 3040 3040 3041 3041 3041 3041 3041 3041 3041 3041 3041 3042 3042 3042 3043 3043 3044 3044 3044 3045 3045 3045 3046 3046 3046 3046 3045 3045 3046 3046 3046 3046 3046 3046 3047 3047 3047 3047 3047 3048 3048 3049 3049 3049 3050 3050 3051 3051 3052 3052 3052 3053 3053 3054 3054 3055 3055 3055 3056 3056 3057 3057 3057 3057 3058 3058 3059
3037 3037 3037 3037 3037 3037 3037 3037 3037 3037 3037 3037 3037 3037 3037 3037 3037 3037 3037 3037 3038 3038 3038 3038 3038 3038 3039 3039 3039 3039 3039 3040 3040 3041 3041 3042 3042 3042 3042 3043 3043 3043 3043 3043 3043 3043 3043 3043 3043 3043 3044 3044 3044 3045 3045 3045 3046 3046 3046 3047 3047 3047 3048 3048 3049 3049 3050 3050 3050 3051 3051 3052 3052 3053 3053 3053 3054 3054 3055 3055 3055 3056 3056 3057 3057 3057
3034 3034 3034 3034 3034 3034 3035 3035 3035 3035 3035 3035 3035 3035 3035 3035 3035 3035 3035 3035 3036 3036 3036 3037 3036 3037 3037 3037 3037 3037 3037 3037 3038 3038 3039 3039 3040 3040 3040 3040 3040 3041 3041 3041 3041 3041 3041 3041 3041 3041 3042 3042 3042 3043 3043 3043 3044 3044 3045 3045 3045 3046 3046 3047 3047 3047 3048 3048 3049 3049 3050 3050 3051 3051 3052 3052 3052 3053 3053 3053 3054 3054 3055 3055 3055 3056
3032 3032 3032 3032 3032 3032 3032 3032 3032 3032 3032 3032 3032 3032 3032 3033 3033 3033 3033 3033 3033 3034 3034 3034 3034 3034 3035 3035 3035 3035 3035 3036 3036 3036 3037 3037 3037 3037 3037 3038 3038 3038 3038 3038 3038 3038 3038 3039 3039 3039 3040 3040 3040 3041 3041 3042 3042 3042 3043 3043 3044 3044 3045 3045 3046 3046 3046 3047 3047 3047 3048 3048 3049 3049 3050 3050 3051 3051 3052 3052 3052 3052 3053 3053 3054 3054
3030 3030 3030 3030 3030 3030 3030 3030 3030 3030 3030 3030 3030 3030 3030 3030 3031 3031 3031 3031 3031 3031 3032 3032 3032 3032 3032 3032 3033 3033 3033 3034 3034 3034 3034 3035 3035 3035 3035 3035 3035 3035 3035 3036 3036 3036 3036 3037 3037 3037 3038 3038 3038 3039 3039 3040 3040 3041 3041 3042 3042 3042 3043 3043 3044 3044 3045 3045 3046 3046 3047 3047 3047 3048 3048 3049 3049 3049 3050 3050 3051 3051 3052 3052 3052 3053
3027 3027 3027 3027 3027 3027 3028 3028 3028 3027 3027 3027 3028 3028 3028 3028 3028 3028 3028 3028 3028 3029 3029 3029 3029 3029 3030 3030 3031 3031 3031 3032 3032 3032 3032 3032 3032 3032 3032 3032 3032 3033 3033 3033 3034 3034 3034 3034 3035 3035 3036 3036 3037 3037 3037 3038 3038 3039 3040 3040 3041 3041 3041 3042 3042 3043 3043 3043 3044 3044 3045 3045 3046 3046 3047 3047 3047 3048 3048 3049 3049 3049 3050 3051 3051 3051
3025 3025 3025 3025 3025 3025 3025 3025 3025 3025 3025 3025 3025 3026 3025 3026 3026 3026 3026 3027 3027 3027 3027 3027 3027 3027 3027 3028 3028 3029 3029 3029 3029 3029 3030 3030 3030 3030 3030 3030 3030 3031 3031 3032 3032 3032 3032 3032 3033 3033 3034 3034 3035 3035 3036 3036 3037 3037 3038 3038 3039 3039 3040 3040 3041 3041 3042 3042 3042 3043 3043 3044 3044 3045 3045 3046 3046 3046 3047 3047 3047 3048 3048 3049 3049 3050
3022 3022 3022 3022 3022 3022 3023 3023 3023 3022 3022 3023 3023 3023 3023 3023 3023 3024 3024 3024 3025 3025 3025 3025 3025 3025 3025 3026 3026 3027 3027 3027 3027 3027 3027 3027 3027 3027 3028 3028 3028 3029 3029 3030 3030 3030 3031 3031 3031 3032 3032 3032 3033 3033 3034 3034 3035 3036 3036 3037 3037 3038 3038 3039 3039 3040 3040 3040 3041 3041 3042 3042 3042 3043 3043 3044 3044 3045 3045 3046 3046 3047 3047 3047 3048 3048
3020 3020 3020 3020 3020 3020 3020 3020 3020 3020 3020 3020 3020 3021 3021 3021 3021 3021 3022 3022 3022 3023 3023 3023 3023 3023 3023 3024 3024 3024 3025 3024 3024 3024 3024 3025 3025 3025 3025 3026 3026 3027 3027 3027 3028 3028 3029 3029 3029 3030 3030 3031 3031 3032 3032 3033 3033 3034 3035 3035 3036 3036 3037 3037 3037 3038 3038 3039 3039 3040 3040 3041 3041 3042 3042 3042 3043 3043 3043 3044 3044 3045 3045 3046 3046 3047
3017 3018 3018 3017 3017 3017 3017 3017 3018 3018 3018 3018 3018 3018 3018 3018 3018 3018 3019 3019 3020 3020 3020 3020 3021 3021 3021 3022 3022 3022 3022 3022 3021 3021 3022 3022 3023 3023 3023 3023 3024 3024 3025 3026 3026 3026 3027 3027 3027 3028 3028 3029 3030 3030 3031 3031 3032 3032 3033 3033 3034 3034 3035 3035 3036 3036 3037 3037 3037 3038 3038 3039 3039 3040 3040 3041 3041 3042 3042 3042 3043 3043 3044 3044 3045 3045
3015 3015 3015 3015 3015 3015 3015 3015 3015 3015 3015 3015 3015 3015 3015 3015 3016 3016 3016 3017 3017 3017 3017 3018 3018 3018 3019 3019 3020 3020 3020 3019 3019 3019 3019 3020 3021 3021 3021 3022 3022 3022 3023 3024 3024 3024 3025 3025 3026 3026 3027 3027 3028 3028 3029 3030 3030 3031 3031 3032 3032 3033 3033 3034 3034 3035 3035 3036 3036 3037 3037 3037 3038 3038 3039 3039 3040 3040 3041 3041 3041 3042 3042 3043 3043 3043
3012 3012 3012 3012 3012 3012 3012 3012 3013 3013 3013 3012 3012 3012 3012 3013 3013 3013 3013 3014 3014 3014 3015 3015 3016 3016 3017 3017 3018 3018 3017 3017 3017 3017 3017 3018 3019 3019 3020 3020 3020 3020 3021 3022 3022 3022 3023 3023 3024 3025 3025 3026 3027 3027 3027 3028 3028 3029 3030 3030 3031 3031 3032 3032 3032 3033 3033 3034 3034 3035 3035 3036 3036 3037 3037 3037 3038 3038 3039 3039 3040 3040 3041 3041 3042 3042
3009 3009 3009 3010 3009 3009 3009 3010 3010 3010 3010 3010 3010 3010 3010 3010 3010 3010 3011 3011 3012 3012 3012 3013 3013 3014 3015 3016 3016 3016 3015 3015 3015 3015 3015 3016 3017 3018 3018 3018 3018 3019 3019 3020 3021 3021 3021 3022 3022 3023 3024 3024 3025 3026 3026 3027 3027 3027 3028 3028 3029 3029 3030 3030 3031 3031 3032 3032 3033 3033 3034 3034 3035 3035 3036 3036 3036 3037 3037 3037 3038 3038 3039 3039 3040 3040
3006 3007 3007 3007 3007 3007 3007 3007 3007 3007 3007 3007 3007 3007 3007 3007 3007 3008 3008 3009 3009 3010 3010 3011 3011 3012 3012 3013 3013 3013 3013 3013 3013 3013 3014 3014 3015 3016 3016 3016 3016 3017 3018 3018 3019 3019 3020 3020 3021 3022 3022 3023 3023 3024 3025 3025 3026 3026 3027 3027 3027 3028 3028 3029 3029 3030 3030 3031 3031 3032 3032 3033 3033 3033 3034 3034 3035 3035 3036 3036 3036 3037 3037 3038 3038 3039
3004 3004 3004 3004 3004 3004 3004 3004 3004 3005 3005 3005 3005 3005 3005 3005 3005 3005 3006 3006 3007 3007 3008 3008 3009 3009 3010 3011 3011 3011 3011 3011 3012 3012 3012 3013 3013 3014 3014 3014 3014 3015 3016 3017 3017 3017 3018 3019 3020 3020 3021 3022 3022 3022 3023 3024 3024 3025 3025 3026 3026 3027 3027 3027 3028 3028 3029 3029 3030 3030 3031 3031 3032 3032 3032 3032 3033 3033 3034 3034 3035 3035 3036 3036 3037 3037
3001 3001 3001 3001 3002 3002 3001 3001 3002 3002 3002 3002 3002 3002 3002 3002 3002 3003 3003 3004 3004 3005 3005 3006 3007 3007 3007 3008 3008 3008 3009 3009 3010 3010 3010 3011 3012 3012 3013 3012 3013 3014 3014 3015 3016 3016 3017 3018 3018 3019 3019 3020 3021 3021 3022 3022 3023 3023 3024 3024 3025 3025 3026 3026 3027 3027 3027 3028 3028 3029 3029 3030 3030 3030 3031 3031 3031 3032 3032 3032 3033 3033 3034 3034 3035 3035
2998 2998 2998 2998 2998 2998 2998 2998 2999 2999 2999 2999 2999 2999 2999 3000 3000 3000 3001 3001 3002 3002 3003 3003 3004 3004 3005 3006 3006 3007 3007 3007 3008 3008 3008 3009 3010 3011 3011 3011 3012 3012 3013 3014 3014 3015 3016 3017 3017 3017 3018 3019 3019 3020 3020 3021 3021 3022 3022 3023 3023 3024 3024 3025 3025 3026 3026 3027 3027 3027 3027 3028 3028 3029 3029 3029 3030 3030 3030 3031 3031 3032 3032 3032 3033 3033
2996 2996 2996 2996 2996 2996 2996 2996 2996 2996 2996 2996 2997 2997 2997 2997 2997 2997 2998 2998 2999 2999 3000 3001 3001 3002 3002 3003 3004 3004 3005 3005 3006 3006 3007 3007 3008 3009 3009 3009 3010 3011 3012 3012 3013 3014 3014 3015 3016 3016 3017 3017 3018 3018 3019 3019 3020 3020 3021 3021 3022 3022 3023 3023 3024 3024 3025 3025 3025 3026 3026 3026 3027 3027 3027 3028 3028 3028 3029 3029 3029 3030 3030 3031 3031 3032
2993 2993 2993 2993 2993 2993 2993 2993 2993 2993 2993 2993 2994 2994 2994 2994 2994 2995 2995 2996 2997 2997 2997 2998 2998 2999 3000 3001 3002 3002 3002 3003 3004 3004 3005 3006 3007 3007 3007 3008 3008 3009 3010 3011 3012 3012 3013 3014 3014 3015 3015 3016 3017 3017 3017 3018 3018 3019 3019 3020 3020 3021 3021 3022 3022 3022 3023 3023 3024 3024 3024 3025 3025 3026 3026 3026 3027 3027 3027 3027 3028 3028 3028 3029 3029 3030
2990 2990 2990 2990 2990 2990 2990 2990 2990 2990 2990 2991 2991 2991 2991 2992 2992 2992 2993 2993 2994 2994 2995 2995 2996 2997 2998 2999 3000 3000 3000 3001 3002 3002 3003 3004 3005 3006 3006 3006 3007 3008 3009 3009 3010 3011 3012 3012 3013 3013 3014 3014 3015 3015 3016 3016 3017 3017 3018 3018 3019 3019 3020 3020 3021 3021 3022 3022 3022 3022 3023 3023 3023 3024 3024 3025 3025 3025 3026 3026 3026 3027 3027 3027 3027 3028
2987 2987 2987 2987 2987 2987 2987 2987 2987 2987 2987 2988 2988 2988 2988 2989 2989 2990 2990 2991 2991 2992 2992 2993 2994 2995 2996 2997 2997 2998 2998 2999 3000 3001 3002 3002 3003 3004 3004 3005 3006 3007 3007 3008 3008 3009 3010 3011 3011 3012 3012 3013 3013 3014 3014 3015 3015 3016 3017 3017 3017 3018 3018 3019 3019 3020 3020 3020 3021 3021 3021 3022 3022 3022 3022 3023 3023 3023 3024 3024 3024 3025 3025 3026 3026 3026
2985 2985 2984 2984 2984 2984 2984 2984 2984 2985 2985 2985 2985 2986 2986 2986 2987 2987 2988 2988 2989 2990 2990 2991 2992 2993 2994 2995 2995 2996 2997 2998 2998 2999 3000 3001 3002 3002 3002 3003 3004 3005 3006 3006 3007 3008 3009 3009 3010 3010 3011 3012 3012 3012 3013 3013 3014 3014 3015 3015 3016 3016 3017 3017 3017 3018 3018 3018 3019 3019 3019 3020 3020 3021 3021 3021 3022 3022 3022 3022 3023 3023 3023 3024 3024 3025
2982 2982 2982 2982 2981 2981 2981 2982 2982 2982 2982 2982 2982 2983 2983 2984 2984 2985 2986 2986 2987 2987 2988 2989 2990 2991 2992 2992 2993 2994 2995 2996 2997 2997 2998 2999 3000 3000 3001 3002 3003 3003 3004 3005 3006 3007 3007 3008 3008 3009 3010 3010 3011 3011 3011 3012 3012 3013 3013 3014 3014 3015 3015 3016 3016 3016 3017 3017 3017 3017 3018 3018 3018 3019 3019 3019 3020 3020 3020 3021 3021 3021 3022 3022 3022 3023
2979 2979 2979 2979 2979 2978 2978 2979 2979 2979 2979 2979 2980 2980 2981 2981 2982 2982 2983 2984 2985 2985 2986 2987 2988 2989 2989 2990 2992 2993 2994 2994 2995 2995 2997 2997 2998 2999 3000 3001 3001 3002 3003 3004 3004 3005 3006 3006 3007 3007 3008 3008 3009 3010 3010 3010 3011 3011 3012 3012 3012 3013 3013 3014 3014 3014 3015 3015 3015 3016 3016 3016 3017 3017 3017 3017 3018 3018 3018 3019 3019 3020 3020 3020 3021 3021
2976 2976 2976 2976 2976 2976 2976 2976 2976 2976 2977 2977 2977 2978 2978 2979 2980 2980 2981 2982 2982 2983 2984 2985 2986 2987 2987 2989 2990 2991 2992 2992 2993 2994 2995 2996 2997 2997 2998 2999 3000 3001 3002 3002 3003 3004 3004 3005 3005 3006 3006 3007 3007 3008 3009 3009 3009 3010 3010 3011 3011 3011 3012 3012 3012 3013 3013 3013 3014 3014 3014 3015 3015 3015 3016 3016 3016 3017 3017 3017 3017 3018 3018 3018 3019 3019
2973 2973 2973 2973 2973 2973 2973 2973 2973 2973 2974 2974 2975 2975 2976 2977 2977 2978 2979 2980 2981 2982 2982 2983 2984 2985 2986 2987 2989 2990 2990 2991 2992 2993 2994 2995 2996 2996 2997 2998 2998 2999 3000 3001 3002 3002 3003 3003 3004 3004 3005 3005 3006 3007 3007 3007 3007 3008 3008 3009 3009 3009 3010 3010 3011 3011 3011 3012 3012 3012 3012 3013 3013 3013 3014 3014 3014 3015 3015 3015 3016 3016 3017 3017 3017 3017
2970 2970 2970 2970 2970 2970 2970 2970 2970 2971 2971 2972 2972 2973 2973 2974 2975 2976 2977 2978 2979 2979 2980 2981 2982 2983 2984 2986 2987 2988 2988 2989 2990 2991 2992 2993 2994 2995 2996 2997 2997 2998 2999 2999 3000 3001 3001 3002 3002 3003 3003 3004 3004 3005 3005 3006 3006 3006 3007 3007 3007 3008 3008 3008 3009 3009 3009 3010 3010 3010 3011 3011 3011 3012 3012 3012 3013 3013 3013 3014 3014 3014 3015 3015 3015 3015
2967 2967 2967 2967 2967 2967 2967 2967 2967 2968 2968 2969 2970 2970 2971 2972 2973 2974 2975 2976 2977 2977 2978 2979 2980 2982 2983 2984 2985 2986 2987 2987 2989 2990 2991 2992 2993 2993 2994 2995 2996 2996 2997 2998 2998 2999 3000 3000 3001 3001 3002 3002 3003 3003 3003 3004 3004 3005 3005 3006 3006 3006 3007 3007 3007 3007 3008 3008 3008 3009 3009 3009 3010 3010 3010 3011 3011 3011 3012 3012 3012 3012 3012 3013 3013 3013
2964 2964 2964 2964 2963 2963 2963 2964 2964 2965 2966 2966 2967 2968 2969 2970 2971 2972 2972 2973 2974 2976 2977 2978 2979 2980 2981 2982 2983 2984 2985 2986 2987 2988 2989 2990 2991 2992 2993 2993 2994 2995 2996 2996 2997 2997 2998 2998 2999 3000 3000 3001 3001 3002 3002 3002 3002 3003 3003 3004 3004 3004 3005 3005 3005 3006 3006 3007 3007 3007 3007 3007 3008 3008 3008 3009 3009 3009 3010 3010 3010 3010 3011 3011 3011 3011
2961 2961 2961 2961 2960 2960 2961 2961 2962 2962 2963 2964 2965 2966 2967 2968 2969 2969 2970 2972 2973 2974 2975 2976 2977 2979 2980 2981 2982 2983 2984 2985 2986 2987 2988 2989 2990 2991 2991 2992 2992 2993 2994 2995 2995 2996 2996 2997 2997 2998 2998 2999 2999 3000 3000 3001 3001 3001 3002 3002 3002 3003 3003 3003 3004 3004 3005 3005 3005 3005 3006 3006 3006 3006 3007 3007 3007 3007 3008 3008 3008 3008 3008 3008 3009 3009
2957 2957 2957 2957 2957 2957 2957 2958 2959 2960 2961 2962 2963 2964 2965 2965 2966 2967 2968 2970 2971 2972 2973 2975 2976 2977 2978 2979 2980 2981 2982 2983 2984 2985 2986 2987 2988 2989 2990 2990 2991 2992 2992 2993 2993 2994 2995 2995 2996 2997 2997 2997 2998 2998 2998 2999 2999 3000 3000 3000 3001 3001 3002 3002 3002 3003 3003 3003 3003 3004 3004 3004 3004 3004 3005 3005 3005 3006 3006 3006 3006 3006 3006 3007 3007 3007
2954 2954 2954 2954 2954 2955 2955 2956 2957 2958 2959 2960 2961 2961 2962 2963 2964 2966 2967 2968 2970 2971 2972 2973 2975 2976 2977 2978 2979 2980 2981 2982 2983 2984 2985 2985 2986 2987 2988 2989 2989 2990 2991 2991 2992 2992 2993 2993 2994 2995 2995 2996 2996 2996 2997 2997 2997 2998 2998 2999 2999 3000 3000 3001 3001 3001 3002 3002 3002 3002 3002 3002 3002 3002 3003 3003 3003 3003 3003 3004 3004 3004 3004 3004 3004 3004
2951 2951 2951 2952 2952 2952 2953 2954 2955 2956 2957 2957 2958 2959 2960 2962 2963 2964 2966 2967 2968 2969 2971 2972 2973 2974 2975 2977 2977 2978 2979 2980 2981 2982 2983 2984 2985 2985 2986 2987 2987 2988 2989 2989 2990 2991 2991 2992 2992 2993 2993 2993 2994 2995 2995 2995 2996 2996 2997 2997 2997 2998 2999 2999 2999 3000 3000 3000 3000 3000 3001 3001 3001 3001 3001 3001 3001 3001 3001 3002 3002 3002 3002 3002 3002 3002
2948 2948 2948 2949 2949 2950 2951 2952 2952 2953 2954 2955 2956 2957 2958 2960 2962 2963 2964 2965 2967 2968 2969 2971 2972 2973 2974 2975 2976 2977 2978 2979 2980 2981 2982 2982 2983 2984 2984 2985 2986 2987 2987 2988 2988 2989 2989 2990 2990 2991 2991 2992 2992 2992 2993 2993 2994 2994 2995 2996 2996 2997 2997 2997 2998 2998 2998 2998 2999 2999 2999 2999 2999 2999 2999 2999 2999 2999 2999 2999 2999 2999 2999 3000 3000 2999
2945 2946 2946 2947 2947 2948 2949 2949 2950 2951 2952 2952 2954 2956 2957 2959 2960 2961 2962 2964 2965 2967 2968 2969 2970 2971 2972 2973 2974 2976 2977 2977 2978 2979 2980 2981 2982 2982 2983 2983 2984 2985 2985 2986 2986 2987 2987 2988 2988 2989 2989 2990 2990 2991 2991 2992 2992 2993 2993 2994 2995 2995 2996 2996 2996 2997 2997 2997 2997 2997 2997 2997 2997 2997 2997 2997 2997 2997 2997 2997 2997 2997 2997 2997 2997 2997
2942 2943 2943 2944 2945 2946 2946 2947 2948 2949 2950 2951 2953 2954 2956 2957 2958 2960 2961 2962 2964 2965 2966 2967 2969 2970 2971 2972 2973 2974 2975 2976 2977 2978 2978 2979 2980 2980 2981 2982 2982 2983 2983 2984 2985 2985 2986 2986 2987 2987 2987 2988 2988 2989 2989 2990 2991 2991 2992 2992 2993 2993 2994 2994 2995 2995 2995 2995 2995 2995 2995 2995 2995 2995 2995 2995 2995 2995 2994 2994 2994 2994 2994 2994 2994 2994
2940 2940 2941 2942 2942 2943 2944 2945 2946 2947 2948 2950 2951 2952 2954 2956 2957 2958 2960 2961 2962 2963 2965 2966 2967 2968 2970 2971 2972 2972 2973 2974 2975 2976 2977 2977 2978 2979 2979 2980 2980 2981 2982 2982 2982 2983 2984 2984 2985 2985 2986 2986 2987 2987 2987 2988 2989 2989 2990 2991 2991 2992 2992 2992 2993 2993 2993 2993 2993 2993 2993 2993 2993 2993 2993 2993 2993 2992 2992 2992 2992 2992 2992 2992 2992 2992
2937 2938 2939 2939 2940 2941 2942 2943 2944 2946 2947 2948 2950 2951 2952 2954 2955 2957 2958 2959 2961 2962 2963 2964 2966 2967 2968 2969 2970 2971 2972 2973 2973 2974 2975 2976 2976 2977 2977 2978 2978 2979 2979 2980 2981 2981 2982 2982 2983 2983 2984 2984 2985 2985 2986 2986 2987 2988 2988 2989 2989 2990 2990 2990 2991 2991 2991 2991 2991 2991 2991 2991 2991 2991 2991 2991 2991 2990 2990 2990 2989 2989 2989 2989 2989 2989
2935 2936 2936 2937 2938 2939 2940 2941 2943 2944 2946 2947 2948 2950 2951 2952 2954 2955 2957 2958 2959 2961 2962 2963 2964 2966 2967 2967 2968 2969 2970 2971 2972 2972 2973 2974 2974 2975 2976 2976 2977 2977 2977 2978 2979 2979 2980 2980 2981 2981 2982 2982 2983 2983 2984 2985 2985 2986 2986 2987 2987 2987 2988 2988 2989 2989 2989 2989 2989 2989 2989 2989 2988 2988 2988 2988 2988 2988 2987 2987 2987 2987 2986 2986 2986 2986
2932 2933 2934 2935 2936 2937 2938 2940 2941 2943 2944 2945 2947 2948 2949 2951 2952 2954 2955 2956 2958 2959 2960 2962 2963 2964 2965 2966 2967 2967 2968 2969 2970 2970 2971 2972 2972 2973 2973 2974 2975 2975 2976 2976 2977 2977 2978 2978 2979 2979 2980 2981 2981 2982 2982 2983 2983 2984 2984 2985 2985 2986 2986 2986 2987 2987 2987 2987 2987 2987 2987 2987 2986 2986 2986 2986 2986 2985 2985 2985 2984 2984 2984 2984 2984 2984
2929 2930 2932 2932 2934 2935 2937 2938 2940 2941 2942 2944 2945 2947 2948 2949 2951 2952 2954 2955 2956 2958 2959 2960 2961 2962 2963 2964 2965 2965 2966 2967 2967 2968 2969 2969 2970 2971 2971 2972 2972 2973 2974 2974 2975 2976 2976 2977 2977 2977 2978 2979 2979 2980 2980 2981 2982 2982 2982 2983 2983 2983 2983 2984 2984 2984 2985 2985 2984 2984 2984 2984 2984 2984 2983 2983 2983 2983 2982 2982 2982 2982 2981 2981 2981 2981
2927 2928 2929 2931 2932 2934 2935 2937 2938 2940 2941 2942 2944 2945 2947 2948 2949 2951 2952 2954 2955 2956 2957 2958 2959 2960 2961 2962 2963 2963 2964 2965 2966 2966 2967 2967 2968 2969 2969 2970 2971 2971 2972 2972 2973 2973 2974 2975 2975 2976 2976 2977 2977 2978 2979 2979 2979 2980 2980 2981 2981 2981 2981 2982 2982 2982 2982 2982 2982 2982 2982 2982 2981 2981 2981 2981 2981 2981 2980 2980 2980 2979 2979 2979 2979 2979